Carlsbad, NM

8:50 PM MST on January 18, 2017 (GMT -0700)
Cavern City

Weather History for KCNM - July, 2014

Change the Weather History Date:

Thursday, July 17, 2014

  Actual Average Record
Temperature  
Mean Temperature 83 °F -  
Max Temperature 95 °F 95 °F 107 °F (1978)
Min Temperature 73 °F 69 °F 53 °F (1955)
Cooling Degree Days 18    
Growing Degree Days 33 (Base 50)    
Moisture  
Dew Point 61 °F    
Average Humidity 53    
Maximum Humidity 73    
Minimum Humidity 26    
Precipitation  
Precipitation 0.00 in - - ()
Sea Level Pressure  
Sea Level Pressure 29.78 in    
Wind  
Wind Speed 10 mph (NNE)    
Max Wind Speed 22 mph    
Max Gust Speed 30 mph    
Visibility 10 miles    
Events      
Averages and records for this station are not official NWS values.
T = Trace of Precipitation, MM = Missing Value Source: NWS Daily Summary

Daily Weather History Graph

Daily Weather History Graph

Search for Another Location

Airport or City:

Trip Planner

Search our weather history database for the weather conditions in past years. The results will help you decide how hot, cold, wet, or windy it might be!

Date:

Astronomy

Jul. 17, 2014 Rise Set
Actual Time 6:02 AM MDT 8:04 PM MDT
Civil Twilight 5:34 AM MDT 8:31 PM MDT
Nautical Twilight 5:00 AM MDT 9:05 PM MDT
Astronomical Twilight 4:24 AM MDT 9:41 PM MDT
Moon 11:50 PM MDT (7/17) 11:52 AM MDT (7/17)
Length of Visible Light 14h 57m
Length of Day
14h 01m
Waning Gibbous, 65% of the Moon is Illuminated
Jul 17
Waning Gibbous
Jul 18
Last Quarter
Jul 26
New
Aug 3
First Quarter
Aug 10
Full

Hourly Weather History & Observations

Time (MDT) Temp. Heat Index Dew Point Humidity Pressure Visibility Wind Dir Wind Speed Gust Speed Precip Events Conditions
12:53 AM 77.0 °F - 64.9 °F 66% 29.70 in 10.0 mi SSE 5.8 mph - N/A   Partly Cloudy
1:53 AM 75.9 °F - 64.9 °F 69% 29.70 in 10.0 mi SE 8.1 mph - N/A   Clear
2:53 AM 75.0 °F - 66.0 °F 73% 29.70 in 10.0 mi SE 4.6 mph - N/A   Clear
3:53 AM 75.9 °F - 66.0 °F 71% 29.69 in 10.0 mi Calm Calm - N/A   Clear
4:53 AM 75.9 °F - 64.0 °F 67% 29.70 in 10.0 mi North 10.4 mph - N/A   Clear
5:53 AM 75.9 °F - 62.1 °F 62% 29.73 in 10.0 mi NNW 5.8 mph - N/A   Scattered Clouds
6:53 AM 77.0 °F - 60.1 °F 56% 29.75 in 10.0 mi NW 13.8 mph - N/A   Clear
7:53 AM 73.4 °F - 62.6 °F 69% 29.97 in 10.0 mi NNW 19.6 mph 28.8 mph N/A   Mostly Cloudy
8:53 AM 75.0 °F - 61.0 °F 62% 29.80 in 10.0 mi NW 21.9 mph 29.9 mph N/A   Mostly Cloudy
9:53 AM 77.0 °F - 61.0 °F 58% 29.81 in 10.0 mi NNW 17.3 mph 27.6 mph N/A   Scattered Clouds
10:53 AM 81.0 °F 81.7 °F 61.0 °F 50% 29.80 in 10.0 mi North - - N/A   Clear
11:53 AM 84.0 °F 84.4 °F 61.0 °F 46% 29.79 in 10.0 mi North 13.8 mph 24.2 mph N/A   Clear
12:53 PM 88.0 °F 87.1 °F 59.0 °F 37% 29.77 in 10.0 mi North 9.2 mph - N/A   Clear
1:53 PM 91.9 °F 90.8 °F 57.9 °F 32% 29.74 in 10.0 mi NNW 9.2 mph 16.1 mph N/A   Clear
2:53 PM 93.0 °F 91.1 °F 55.0 °F 28% 29.72 in 10.0 mi NNW 9.2 mph - N/A   Clear
3:53 PM 91.0 °F 89.2 °F 55.9 °F 30% 29.71 in 10.0 mi NNW 5.8 mph - N/A   Clear
4:53 PM 93.9 °F 91.7 °F 54.0 °F 26% 29.69 in 10.0 mi NNE 5.8 mph - N/A   Clear
5:53 PM 90.0 °F 90.0 °F 61.0 °F 38% 29.70 in 10.0 mi East 15.0 mph - N/A   Clear
6:53 PM 87.1 °F 87.5 °F 62.1 °F 43% 29.74 in 10.0 mi East 15.0 mph - N/A   Clear
7:53 PM 84.0 °F 84.4 °F 61.0 °F 46% 29.76 in 10.0 mi East 17.3 mph 24.2 mph N/A   Clear
8:53 PM 80.1 °F 81.2 °F 62.1 °F 54% 29.82 in 10.0 mi East 18.4 mph 26.5 mph N/A   Clear
9:53 PM 77.0 °F - 62.1 °F 60% 29.88 in 10.0 mi East 16.1 mph 21.9 mph N/A   Clear
10:53 PM 75.9 °F - 62.1 °F 62% 29.89 in 10.0 mi East 13.8 mph - N/A   Scattered Clouds
11:53 PM 75.2 °F - 62.6 °F 65% 30.07 in 10.0 mi ESE 13.8 mph - N/A   Overcast